GSAT-15

Last updated on Nov. 14, 2019, 4:21 a.m. UTC

1 41028U 15065A   19316.85149848 -.00000244  00000-0  00000-0 0  9990
2 41028   0.1144  98.8950 0002613 125.2749 227.5930  1.00272027 14686
UTC
Height (km)
Latitude
Longitude
Inclination
Orbital Period
UTC large
Height (km)
Speed (km/s)
/
Latitude / Longitude
Inclination (degrees)
Orbital Period (minutes)
Azimuth
Elevation
Range (km)
Doppler Factor
iOS Compass Heading
iOS Angle

Next 30 passes for location: Hong Kong

Rise time Rise Azimuth (degrees) Set time Set Azimuth (degrees) Duration Max altitude (degrees)

No matching passes for this satellites